• In Deutschland
  • Länderverzeichnis
  • Für 7 Tage
  • Wassertemperatur
  • Satellitenkarten
  • Wetterkarte
  • Widgets
  • user-avatar
    Anmelden

    Stündliche Wetter Kipungo

    Heute, 23 Mai, Mittwoch

    Zeit Temperatur Niederschläge Wind Luftdruck Luftfeuchtigkeit
    00:00 +21°C° 0 mm 1 m/S 656 mmHg 48%
    01:00 +19°C° 0 mm 1 m/S 656 mmHg 50%
    02:00 +19°C° 0 mm 1 m/S 655 mmHg 51%
    03:00 +18°C° 0 mm 1 m/S 655 mmHg 52%
    04:00 +18°C° 0 mm 1 m/S 655 mmHg 53%
    05:00 +16°C° 0 mm 1 m/S 655 mmHg 54%
    06:00 +16°C° 0 mm 1 m/S 655 mmHg 56%
    07:00 +16°C° 0 mm 1 m/S 656 mmHg 55%
    08:00 +20°C° 0 mm 1 m/S 656 mmHg 46%
    09:00 +23°C° 0 mm 2 m/S 657 mmHg 37%
    10:00 +26°C° 0 mm 3 m/S 658 mmHg 28%
    11:00 +27°C° 0 mm 3 m/S 657 mmHg 26%
    12:00 +28°C° 0 mm 3 m/S 657 mmHg 24%
    13:00 +29°C° 0 mm 3 m/S 656 mmHg 21%
    14:00 +29°C° 0 mm 3 m/S 656 mmHg 22%
    15:00 +28°C° 0 mm 3 m/S 656 mmHg 23%
    16:00 +28°C° 0 mm 2 m/S 655 mmHg 24%
    17:00 +25°C° 0 mm 2 m/S 655 mmHg 30%
    18:00 +23°C° 0 mm 2 m/S 655 mmHg 35%
    19:00 +20°C° 0 mm 1 m/S 655 mmHg 41%
    20:00 +20°C° 0 mm 1 m/S 655 mmHg 42%
    21:00 +19°C° 0 mm 1 m/S 655 mmHg 43%
    22:00 +18°C° 0 mm 1 m/S 655 mmHg 44%
    23:00 +18°C° 0 mm 1 m/S 655 mmHg 45%

    Morgen, 24 Mai, Donnerstag

    Zeit Temperatur Niederschläge Wind Luftdruck Luftfeuchtigkeit
    00:00 +16°C° 0 mm 1 m/S 655 mmHg 47%
    01:00 +16°C° 0 mm 1 m/S 655 mmHg 48%
    02:00 +15°C° 0 mm 1 m/S 655 mmHg 50%
    03:00 +15°C° 0 mm 1 m/S 654 mmHg 51%
    04:00 +13°C° 0 mm 0 m/S 654 mmHg 52%
    05:00 +13°C° 0 mm 0 m/S 654 mmHg 52%
    06:00 +13°C° 0 mm 0 m/S 654 mmHg 53%
    07:00 +14°C° 0 mm 0 m/S 654 mmHg 53%
    08:00 +19°C° 0 mm 1 m/S 655 mmHg 45%
    09:00 +23°C° 0 mm 2 m/S 656 mmHg 37%
    10:00 +26°C° 0 mm 2 m/S 657 mmHg 29%
    11:00 +27°C° 0 mm 2 m/S 657 mmHg 27%
    12:00 +28°C° 0 mm 2 m/S 656 mmHg 26%
    13:00 +29°C° 0 mm 2 m/S 656 mmHg 25%
    14:00 +28°C° 0 mm 2 m/S 655 mmHg 28%
    15:00 +27°C° 0 mm 2 m/S 655 mmHg 30%
    16:00 +26°C° 0 mm 2 m/S 654 mmHg 33%
    17:00 +24°C° 0 mm 2 m/S 654 mmHg 38%
    18:00 +21°C° 0 mm 2 m/S 654 mmHg 42%
    19:00 +20°C° 0 mm 1 m/S 654 mmHg 46%
    20:00 +19°C° 0 mm 1 m/S 654 mmHg 49%
    21:00 +18°C° 0 mm 1 m/S 654 mmHg 51%
    22:00 +18°C° 0 mm 1 m/S 654 mmHg 54%
    23:00 +16°C° 0 mm 1 m/S 654 mmHg 56%

    übermorgen, 25 Mai, Freitag

    Zeit Temperatur Niederschläge Wind Luftdruck Luftfeuchtigkeit
    00:00 +15°C° 0 mm 1 m/S 654 mmHg 58%
    01:00 +15°C° 0 mm 1 m/S 653 mmHg 60%
    02:00 +13°C° 0 mm 0 m/S 653 mmHg 62%
    03:00 +13°C° 0 mm 0 m/S 653 mmHg 64%
    04:00 +12°C° 0 mm 0 m/S 652 mmHg 66%
    05:00 +12°C° 0 mm 0 m/S 653 mmHg 65%
    06:00 +13°C° 0 mm 0 m/S 653 mmHg 65%
    07:00 +13°C° 0 mm 0 m/S 653 mmHg 65%
    08:00 +19°C° 0 mm 1 m/S 654 mmHg 55%
    09:00 +21°C° 0 mm 2 m/S 655 mmHg 44%
    10:00 +26°C° 0 mm 3 m/S 656 mmHg 34%
    11:00 +27°C° 0 mm 2 m/S 656 mmHg 31%
    12:00 +28°C° 0 mm 2 m/S 655 mmHg 28%
    13:00 +30°C° 0 mm 2 m/S 655 mmHg 25%
    14:00 +29°C° 0 mm 2 m/S 655 mmHg 25%
    15:00 +29°C° 0 mm 1 m/S 654 mmHg 25%
    16:00 +29°C° 0 mm 1 m/S 654 mmHg 25%
    17:00 +26°C° 0 mm 1 m/S 653 mmHg 31%
    18:00 +23°C° 0 mm 1 m/S 653 mmHg 36%
    19:00 +21°C° 0 mm 1 m/S 653 mmHg 42%
    20:00 +20°C° 0 mm 1 m/S 653 mmHg 43%
    21:00 +20°C° 0 mm 1 m/S 653 mmHg 45%
    22:00 +19°C° 0 mm 1 m/S 654 mmHg 46%
    23:00 +18°C° 0 mm 1 m/S 653 mmHg 50%

    26 Mai, Samstag

    Zeit Temperatur Niederschläge Wind Luftdruck Luftfeuchtigkeit
    00:00 +16°C° 0 mm 1 m/S 653 mmHg 54%
    01:00 +15°C° 0 mm 1 m/S 653 mmHg 58%
    02:00 +15°C° 0 mm 1 m/S 653 mmHg 61%
    03:00 +13°C° 0 mm 0 m/S 652 mmHg 64%
    04:00 +13°C° 0 mm 0 m/S 652 mmHg 67%
    05:00 +13°C° 0 mm 0 m/S 652 mmHg 66%
    06:00 +13°C° 0 mm 0 m/S 653 mmHg 66%
    07:00 +13°C° 0 mm 0 m/S 653 mmHg 66%
    08:00 +19°C° 0 mm 1 m/S 654 mmHg 55%
    09:00 +23°C° 0 mm 2 m/S 655 mmHg 44%
    10:00 +26°C° 0 mm 3 m/S 656 mmHg 33%
    11:00 +28°C° 0 mm 2 m/S 656 mmHg 30%
    12:00 +29°C° 0 mm 2 m/S 655 mmHg 26%
    13:00 +30°C° 0 mm 2 m/S 655 mmHg 23%
    14:00 +30°C° 0 mm 1 m/S 655 mmHg 23%
    15:00 +30°C° 0 mm 1 m/S 654 mmHg 23%
    16:00 +29°C° 0 mm 1 m/S 654 mmHg 23%
    17:00 +26°C° 0 mm 1 m/S 654 mmHg 28%
    18:00 +24°C° 0 mm 1 m/S 653 mmHg 33%
    19:00 +21°C° 0 mm 1 m/S 653 mmHg 38%
    20:00 +20°C° 0 mm 1 m/S 653 mmHg 39%
    21:00 +19°C° 0 mm 1 m/S 654 mmHg 40%
    22:00 +19°C° 0 mm 1 m/S 654 mmHg 42%
    23:00 +18°C° 0 mm 1 m/S 654 mmHg 44%

    27 Mai, Sonntag

    Zeit Temperatur Niederschläge Wind Luftdruck Luftfeuchtigkeit
    00:00 +16°C° 0 mm 1 m/S 654 mmHg 47%
    01:00 +16°C° 0 mm 1 m/S 653 mmHg 50%
    02:00 +15°C° 0 mm 1 m/S 653 mmHg 54%
    03:00 +15°C° 0 mm 1 m/S 653 mmHg 57%
    04:00 +14°C° 0 mm 1 m/S 653 mmHg 61%
    05:00 +14°C° 0 mm 1 m/S 653 mmHg 63%
    06:00 +14°C° 0 mm 1 m/S 654 mmHg 65%
    07:00 +15°C° 0 mm 1 m/S 654 mmHg 67%
    08:00 +18°C° 0 mm 2 m/S 655 mmHg 57%
    09:00 +22°C° 0 mm 3 m/S 656 mmHg 47%
    10:00 +26°C° 0 mm 4 m/S 657 mmHg 37%
    11:00 +28°C° 0 mm 3 m/S 656 mmHg 33%
    12:00 +29°C° 0 mm 3 m/S 656 mmHg 29%
    13:00 +30°C° 0 mm 2 m/S 656 mmHg 25%
    14:00 +30°C° 0 mm 2 m/S 655 mmHg 25%
    15:00 +30°C° 0 mm 2 m/S 655 mmHg 25%
    16:00 +30°C° 0 mm 2 m/S 654 mmHg 25%
    17:00 +27°C° 0 mm 1 m/S 654 mmHg 31%
    18:00 +24°C° 0 mm 1 m/S 654 mmHg 36%
    19:00 +22°C° 0 mm 1 m/S 654 mmHg 42%
    20:00 +21°C° 0 mm 1 m/S 655 mmHg 44%
    21:00 +20°C° 0 mm 1 m/S 655 mmHg 47%
    22:00 +19°C° 0 mm 1 m/S 655 mmHg 49%
    23:00 +19°C° 0 mm 1 m/S 655 mmHg 50%

    28 Mai, Montag

    Zeit Temperatur Niederschläge Wind Luftdruck Luftfeuchtigkeit
    00:00 +19°C° 0 mm 1 m/S 655 mmHg 52%
    01:00 +18°C° 0 mm 1 m/S 655 mmHg 53%
    02:00 +18°C° 0 mm 1 m/S 655 mmHg 55%
    03:00 +16°C° 0 mm 1 m/S 654 mmHg 58%
    04:00 +16°C° 0 mm 1 m/S 654 mmHg 60%
    05:00 +15°C° 0 mm 0 m/S 655 mmHg 61%
    06:00 +15°C° 0 mm 0 m/S 655 mmHg 61%
    07:00 +15°C° 0 mm 0 m/S 656 mmHg 61%
    08:00 +20°C° 0 mm 1 m/S 656 mmHg 53%
    09:00 +24°C° 0 mm 2 m/S 657 mmHg 44%
    10:00 +27°C° 0 mm 2 m/S 658 mmHg 35%
    11:00 +28°C° 0 mm 2 m/S 658 mmHg 31%
    12:00 +29°C° 0 mm 2 m/S 657 mmHg 28%
    13:00 +31°C° 0 mm 2 m/S 657 mmHg 24%
    14:00 +30°C° 0 mm 2 m/S 656 mmHg 24%
    15:00 +30°C° 0 mm 1 m/S 656 mmHg 24%
    16:00 +30°C° 0 mm 1 m/S 655 mmHg 24%
    17:00 +27°C° 0 mm 1 m/S 655 mmHg 29%
    18:00 +24°C° 0 mm 1 m/S 655 mmHg 34%
    19:00 +21°C° 0 mm 1 m/S 655 mmHg 40%
    20:00 +19°C° 0 mm 0 m/S 655 mmHg 41%
    21:00 +18°C° 0 mm 0 m/S 655 mmHg 43%
    22:00 +17°C° 0 mm 0 m/S 655 mmHg 45%
    23:00 +16°C° 0 mm 0 m/S 655 mmHg 48%
    Mehr zeigen